• Join FlightAware (Why Join?)
  • Login
  • US Flag 
09:26AM EDT


 

Airport Tracker/Info


-or-


 

Live Flight TrackerFlight Track Log ✈ SWA2093 ✈ 13-Apr-2013 ✈ KPHX - KSFO

Flight Track Log - Related Links

Times and Time Zones

All times are in EDT time to prevent confusion due to time zone crossing. See the SWA2093 flight status page for this flight to view local times or setup timezone preferences in your user account.

Time Position Orientation Groundspeed Altitude Reporting Facility
EDT Latitude Longitude Course Direction KTS MPH feet Rate Location/Type
06:32PM 33.4333 -112.0500 224° Southwest 176 203 2,400  Level Phoenix TRACON
06:32PM 33.4244 -112.0603 224° Southwest 181 208 2,700 1,920 Climbing Albuquerque Center
06:33PM 33.4036 -112.1308 251° West 219 252 5,100 2,520 Climbing Albuquerque Center
06:34PM 33.3783 -112.2153 250° West 265 305 7,900 2,760 Climbing Albuquerque Center
06:35PM 33.3914 -112.3008 280° West 270 311 10,800 2,280 Climbing Albuquerque Center
06:36PM 33.4011 -112.4022 277° West 306 352 12,600 2,220 Climbing Albuquerque Center
06:37PM 33.4169 -112.5097 280° West 325 374 15,400 2,820 Climbing Albuquerque Center
06:38PM 33.4303 -112.6397 277° West 329 379 18,400 2,400 Climbing Albuquerque Center
06:39PM 33.4453 -112.7522 279° West 338 389 20,400 2,040 Climbing Albuquerque Center
06:40PM 33.4608 -112.8678 279° West 347 399 22,600 1,920 Climbing Albuquerque Center
06:41PM 33.4839 -112.9808 284° West 350 403 24,400 1,260 Climbing Albuquerque Center
06:42PM 33.5061 -113.0997 283° West 363 418 25,300 1,200 Climbing Albuquerque Center
06:43PM 33.5297 -113.2231 283° West 376 433 26,900 1,200 Climbing Albuquerque Center
06:44PM 33.5536 -113.3497 283° West 385 443 27,800 1,260 Climbing Albuquerque Center
06:45PM 33.5825 -113.5072 282° West 401 461 29,600 1,740 Climbing Albuquerque Center
06:46PM 33.6069 -113.6342 283° West 397 457 31,400 1,380 Climbing Albuquerque Center
06:47PM 33.6308 -113.7625 283° West 384 442 32,500 1,080 Climbing Albuquerque Center
06:48PM 33.6539 -113.8883 282° West 386 444 33,700 1,020 Climbing Albuquerque Center
06:49PM 33.6769 -114.0122 283° West 382 440 34,600 840 Climbing Albuquerque Center
06:51PM 33.7133 -114.1289 291° West 378 435 35,500 660 Climbing Albuquerque Center
06:52PM 33.7533 -114.2364 294° West 374 430 36,000 240 Climbing Albuquerque Center
06:53PM 33.7956 -114.3503 294° West 374 430 36,000  Level Albuquerque Center
06:54PM 33.8367 -114.4642 294° West 373 429 36,000  Level Albuquerque Center
06:55PM 33.8914 -114.6131 294° West 374 430 36,000  Level Los Angeles Center
06:56PM 33.9339 -114.7283 294° West 377 434 36,000  Level Los Angeles Center
06:57PM 33.9758 -114.8439 294° West 378 435 36,000 -60 Level Los Angeles Center
06:58PM 34.0250 -114.9822 293° West 377 434 35,900  Descending Los Angeles Center
06:59PM 34.0667 -115.0972 294° West 377 434 36,000  Climbing Los Angeles Center
07:00PM 34.1075 -115.2128 293° West 376 433 36,000  Level Los Angeles Center
07:01PM 34.1494 -115.3269 294° West 374 430 36,000  Level Los Angeles Center
07:02PM 34.1897 -115.4431 293° West 376 433 36,000  Level Los Angeles Center
07:03PM 34.2306 -115.5592 293° West 377 434 36,000 -60 Level Los Angeles Center
07:04PM 34.2717 -115.6753 293° West 377 434 35,900  Descending Los Angeles Center
07:05PM 34.3214 -115.8142 293° West 377 434 36,000  Climbing Los Angeles Center
07:06PM 34.3569 -115.9192 292° West 377 434 36,000  Level Los Angeles Center
07:07PM 34.3983 -116.0356 293° West 377 434 36,000  Level Los Angeles Center
07:08PM 34.4397 -116.1531 293° West 379 436 36,000  Level Los Angeles Center
07:09PM 34.4883 -116.2956 293° West 381 438 36,000  Level Los Angeles Center
07:10PM 34.5297 -116.4125 293° West 378 435 36,000  Level Los Angeles Center
07:11PM 34.5703 -116.5319 292° West 382 440 36,000  Level Los Angeles Center
07:12PM 34.6100 -116.6489 292° West 375 432 36,000  Level Los Angeles Center
07:13PM 34.6506 -116.7672 293° West 378 435 36,000  Level Los Angeles Center
07:14PM 34.6908 -116.8844 293° West 376 433 36,000  Level Los Angeles Center
07:15PM 34.7300 -117.0025 292° West 378 435 36,000  Level Los Angeles Center
07:16PM 34.7781 -117.1450 292° West 378 435 36,000  Level Los Angeles Center
07:17PM 34.8181 -117.2661 292° West 384 442 36,000  Level Los Angeles Center
07:18PM 34.8581 -117.3875 292° West 385 443 36,000  Level Los Angeles Center
07:19PM 34.8983 -117.5103 292° West 388 447 36,000  Level Los Angeles Center
07:21PM 34.9408 -117.6342 293° West 389 448 36,000  Level Los Angeles Center
07:22PM 34.9814 -117.7586 292° West 387 445 36,000  Level Los Angeles Center
07:23PM 35.0225 -117.8811 292° West 387 445 36,000  Level Los Angeles Center
07:24PM 35.0631 -118.0044 292° West 389 448 36,000  Level Los Angeles Center
07:25PM 35.1033 -118.1272 292° West 389 448 36,000 -360 Level Los Angeles Center
07:26PM 35.1508 -118.2731 292° West 385 443 35,300 -840 Descending Los Angeles Center
07:27PM 35.1889 -118.3922 291° West 379 436 34,300 -660 Descending Los Angeles Center
07:28PM 35.2278 -118.5125 292° West 381 438 34,000 -180 Descending Los Angeles Center
07:29PM 35.2667 -118.6319 292° West 379 436 34,000  Level Los Angeles Center
07:30PM 35.3053 -118.7550 291° West 387 445 34,000  Level Los Angeles Center
07:31PM 35.3439 -118.8775 291° West 390 449 34,000  Level Los Angeles Center
07:32PM 35.3831 -119.0031 291° West 394 453 34,000  Level Los Angeles Center
07:33PM 35.4225 -119.1558 288° West 392 451 34,000  Level Los Angeles Center
07:34PM 35.4500 -119.2850 285° West 394 453 34,000  Level Los Angeles Center
07:35PM 35.4842 -119.4378 285° West 390 449 34,000  Level Los Angeles Center
07:36PM 35.4931 -119.4744 287° West 392 451 34,000  Level Oakland Center
07:37PM 35.5208 -119.6031 285° West 391 450 34,000  Level Oakland Center
07:38PM 35.5489 -119.7297 285° West 388 447 34,000  Level Oakland Center
07:39PM 35.5831 -119.8856 285° West 395 455 34,000  Level Oakland Center
07:40PM 35.6108 -120.0156 285° West 396 456 34,000  Level Oakland Center
07:41PM 35.6403 -120.1431 286° West 391 450 34,000  Level Oakland Center
07:42PM 35.6678 -120.2744 284° West 397 457 34,000  Level Oakland Center
07:43PM 35.7061 -120.3997 291° West 397 457 34,000  Level Oakland Center
07:44PM 35.7539 -120.5236 295° West 400 460 34,000  Level Oakland Center
07:45PM 35.8025 -120.6464 296° West 401 461 34,000  Level Oakland Center
07:46PM 35.8511 -120.7694 296° West 401 461 34,000  Level Oakland Center
07:47PM 35.9033 -120.8931 298° West 407 468 34,000  Level Oakland Center
07:48PM 35.9828 -120.9889 316° Northwest 402 463 34,000  Level Oakland Center
07:49PM 36.0761 -121.1081 314° West 403 464 34,000  Level Oakland Center
07:50PM 36.1542 -121.2067 314° West 402 463 34,000 -60 Level Oakland Center
07:51PM 36.2311 -121.3031 315° West 395 455 33,900 -1,380 Descending Oakland Center
07:52PM 36.3069 -121.3997 314° West 395 455 31,200 -2,520 Descending Oakland Center
07:53PM 36.3819 -121.4983 313° West 393 452 28,800 -2,280 Descending Oakland Center
07:54PM 36.4553 -121.5906 315° West 378 435 26,600 -2,160 Descending Oakland Center
07:55PM 36.5247 -121.6806 314° West 361 415 24,500 -1,800 Descending Oakland Center
07:56PM 36.5908 -121.7628 315° West 335 386 23,000 -1,680 Descending Oakland Center
07:57PM 36.6517 -121.8425 314° West 319 367 21,200 -1,800 Descending Oakland Center
07:58PM 36.7117 -121.9183 315° West 312 359 19,400 -1,800 Descending Oakland Center
07:59PM 36.8000 -121.9833 329° Northwest 290 334 17,300 -1,680 Descending Northern Cal TRACON
08:00PM 36.8833 -122.0000 351° North 273 314 15,900 -1,500 Descending Northern Cal TRACON
08:01PM 36.9442 -122.0181 347° North 278 320 14,500 -1,620 Descending Oakland Center
08:02PM 37.0186 -122.0369 349° North 274 315 12,900 -1,620 Descending Oakland Center
08:03PM 37.0939 -122.0556 349° North 274 315 11,300 -1,500 Descending Oakland Center
08:04PM 37.1708 -122.0744 349° North 278 320 9,900 -720 Descending Oakland Center
08:05PM 37.2322 -122.1133 333° Northwest 267 307 9,900 -240 Level Oakland Center
08:06PM 37.2733 -122.1897 304° West 266 306 9,500 -480 Descending Oakland Center
08:07PM 37.3072 -122.2572 302° West 243 280 9,000 -840 Descending Oakland Center
08:08PM 37.3119 -122.3294 275° West 231 266 7,900 -600 Descending Oakland Center
08:09PM 37.3108 -122.4100 269° West 231 266 7,900  Level Oakland Center
08:10PM 37.3536 -122.4567 319° Northwest 223 257 7,900 -660 Level Oakland Center
08:11PM 37.3900 -122.3894 56° Northeast 226 260 6,600 -1,020 Descending Oakland Center
08:12PM 37.4022 -122.3044 80° East 237 273 5,900 -600 Descending Oakland Center
08:13PM 37.4133 -122.2208 80° East 243 280 5,500 -600 Descending Oakland Center
08:14PM 37.4242 -122.1364 81° East 245 282 4,700 -780 Descending Oakland Center
08:15PM 37.4500 -122.0833 58° Northeast 207 238 4,100 -360 Descending Northern Cal TRACON
08:16PM 37.5000 -122.1000 345° North 191 220 4,100 -300 Level Northern Cal TRACON
08:17PM 37.5333 -122.1667 302° West 180 207 3,600 -720 Descending Northern Cal TRACON
08:18PM 37.5500 -122.2000 302° West 148 170 2,700 -840 Descending Northern Cal TRACON
08:19PM 37.5667 -122.2500 293° West 134 154 2,000 -780 Descending Northern Cal TRACON
08:20PM 37.5828 -122.2919 296° West 137 158 1,100 -720 Descending Oakland Center
08:21PM 37.5978 -122.3294 297° West 128 147 500 -600 Descending Oakland Center